Regional Weather Roundup
Issued by NWS

Home | Current Version | Previous Version | Text Only | Print | Product List | Glossary Off
Versions: 1 2 3 4 5 6 7 8 9 10 11 12 13 14 15 16 17 18 19 20 21 22 23 24 25 26 27 28

000
ASUS45 KBOU 111410
RWRCO

WEATHER ROUNDUP FOR COLORADO
NATIONAL WEATHER SERVICE DENVER/BOULDER CO
700 AM MST MON DEC 11 2017

NOTE: "FAIR" INDICATES FEW OR NO CLOUDS BELOW 12000 FEET WITH NO
SIGNIFICANT WEATHER AND/OR OBSTRUCTIONS TO VISIBILITY.

COZ001>005-013-030-031-111500-
...NORTHWEST COLORADO...

CITY           SKY/WX    TMP DP  RH WIND       PRES   REMARKS
CRAIG          FAIR       4  -1  80 CALM      30.54F
HAYDEN         FAIR      16   6  65 E14       30.54F WCI   2
MEEKER         FAIR      11   2  67 N3        30.54S
RABBIT EARS PA FAIR      23   1  39 W8        30.53S WCI  14
STEAMBOAT SPGS FAIR       9   5  82 CALM      30.54S
WALDEN         FAIR       1  -6  71 E3        30.51F
$$

COZ006>008-011-111500-
...WEST CENTRAL VALLEYS...

CITY           SKY/WX    TMP DP  RH WIND       PRES   REMARKS
GRAND JUNCTION FAIR      16   1  51 E7        30.55R WCI   6
MONTROSE       FAIR      18  -1  43 S8        30.58S WCI   8
EAGLE          FAIR       4   0  83 E5        30.66F WCI  -5
RIFLE          FAIR      13   2  61 CALM      30.59R
DELTA          FAIR      15  -4  42 CALM      30.58S
NUCLA          FAIR      16 -11  29 SE5       30.58R WCI   9
$$

COZ017>023-064>068-111500-
...SOUTHWEST COLORADO...

CITY           SKY/WX    TMP DP  RH WIND       PRES   REMARKS
DURANGO        FAIR       9  -1  64 CALM      30.49S
CORTEZ         FAIR      10  -1  61 E5        30.51F WCI   2
PAGOSA SPRINGS FAIR      18  -4  37 CALM      30.51R
TELLURIDE      FAIR      29  -4  23 CALM      30.57R
WOLF CREEK PAS FAIR      28 -13  16 NW8       30.65R WCI  20
$$

COZ009-010-012-014-032>034-037-058>063-111500-
...CENTRAL COLORADO...

CITY           SKY/WX    TMP DP  RH WIND       PRES   REMARKS
ASPEN          FAIR      13   1  59 CALM      30.54S
BUENA VISTA    FAIR      13  -4  46 CALM      30.50R
COPPER MTN     NOT AVBL
BERTHOUD PASS  FAIR      19   7  58 NW25      30.52R WCI   2
COTTONWOOD PAS FAIR      39 -11  11 N6        30.51S
GUNNISON       NOT AVBL
KREMMLING      CLOUDY     1  -4  78 CALM      30.64S HAZE
LEADVILLE      FAIR      17 -12  27 NE10      30.52F WCI   5
MONARCH PASS   FAIR      25 -15  17 W18       30.68S WCI  11
SALIDA         FAIR      23  -3  33 W6        30.57R WCI  15
SUNLIGHT       FAIR      28 -22  10 W5        30.62S WCI  23
WILKERSON PASS FAIR      30  -8  19 N17G25    30.53F WCI  18
$$

COZ069>075-111500-
...SAN LUIS VALLEY/SANGRE DE CRISTO MOUNTAINS...

CITY           SKY/WX    TMP DP  RH WIND       PRES   REMARKS
ALAMOSA        FAIR       0  -7  72 CALM      30.52R
DEL NORTE      FAIR      22  -8  26 W10       30.53R WCI  11
LA VETA PASS   FAIR      27  -9  20 SW16G22     N/A  WCI  14
SAGUACHE       FAIR      10  -8  44 E6        30.52S WCI   1
$$

COZ035-036-038>040-111500-
...NORTHERN COLORADO FRONT RANGE...

CITY           SKY/WX    TMP DP  RH WIND       PRES   REMARKS
DENVER INTL AP FAIR      41  -6  13 S16       30.30R
DMNS CITY PARK NOT AVBL
AURORA         PTCLDY    37  -4  17 S12       30.31S
FRONT RANGE AP CLEAR     30   0  27 SW9       30.31S WCI  22
ERIE MUNI ARPT FAIR      23   6  48 N3        30.35R
BOULDER MUN AP FAIR      34   3  27 N6        30.29R WCI  29
CENTENNIAL     FAIR      37  -1  20 S12       30.31F
BROOMFIELD     CLEAR     39   3  22 SW6       30.29S
FORT COLLINS   FAIR      30   9  41 NE6       30.31R WCI  24
LONGMONT       FAIR      23   9  54 S3        30.32R
$$

COZ041-046-047-076>085-087-088-111500-
...PIKES PEAK/PALMER DIVIDE AND SOUTHERN FOOTHILLS...

CITY           SKY/WX    TMP DP  RH WIND       PRES   REMARKS
COLO. SPRINGS  FAIR      34  -5  18 N8        30.36R WCI  27
A. F. ACADEMY  FAIR      24  -5  27 N9        30.35F WCI  14
SCHRIEVER AFB  FAIR      40  -7  13 N10       30.36R
CHEYENNE MTN   FAIR      48  -8   9 S5        30.32R
ELLICOTT         N/A    N/A N/A N/A N3        30.33F
FALCON         FAIR      31 -10  16 NW6       30.37F WCI  26
FORT CARSON    FAIR      33  -4  19 N12       30.33S WCI  25
LIMON          FAIR      19  -1  41 N3        30.32S
MONUMENT HILL  FAIR      27  -4  26 SW8       30.37F WCI  18
CANON CITY     FAIR      41  -2  16 W13       30.36R
WALSENBURG     FAIR      45  -4  13 W15       30.38R
TRINIDAD       FAIR      32   2  27 W12       30.38R WCI  23
$$

COZ042>045-048>051-090-091-111500-
...NORTHEAST COLORADO...

CITY           SKY/WX    TMP DP  RH WIND       PRES   REMARKS
GREELEY ARPT   FAIR      15   4  61 SW9       30.32R WCI   3
AKRON          FAIR      32   0  25 NW12      30.29R WCI  23
BURLINGTON     FAIR      28   3  34 W10       30.29R WCI  19
WRAY           FAIR      37   5  25 NW13      30.28R
YUMA           FAIR      30   3  31 W12       30.28S WCI  21
STERLING       FAIR      18   5  57 S6        30.30R WCI   9
HOLYOKE        FAIR      32  10  40 W8        30.25F WCI  25
FORT MORGAN    FAIR      24   1  37 W7        30.32R WCI  16
$$

COZ086-089-092>099-111500-
...SOUTHEAST COLORADO...

CITY           SKY/WX    TMP DP  RH WIND       PRES   REMARKS
PUEBLO         FAIR      23   4  44 MISG      30.34R
LA JUNTA       FAIR      28   3  34 W12       30.33R WCI  18
LAMAR          FAIR      22   2  42 W8        30.31R WCI  12
SPRINGFIELD      N/A     30   2  30 NW10      30.30R WCI  21
$$




USA.gov is the U.S. government's official web portal to all federal, state and local government web resources and services.